STARLINK-32473, 62049

Orbit data source: Space-Track

STARLINK-32473, 62049 is a payload satellite owned by SpaceX/Seattle (US) in LEO that was launched on Thu, 21 Nov 2024 UTC via an FALCON 9 launch vehicle from the Air Force Eastern Test Range (AFETR). Payload-class satellites include a variety of spacecraft equipped with specific instruments for various scientific and technological missions. These include communications satellites like Starlink; space stations such as the ISS; scientific satellites like the Hubble; Earth observation satellites from companies like Planet Labs, Umbra, and HawkEye 360; GPS; miniature CubeSats for education and research; and military/defense satellites.

Loading next visibility...
Identifier
62049, 2024-216T
Orbit
LEO
Last TLE update
6 hours ago
Origin
Manufacturer
SpaceX/Seattle
Mission
Operational Commercial Communications
Bus & Motor
STARLINK V2M, Unknown motor
Mass
730 kg wet, ~700 kg dry
Launch date (UTC)
2024-11-21 (7 months ago)
Launch vehicle
FALCON 9
Launch site
Air Force Eastern Test Range (AFETR)
Object type
Payload
Rocket body
Debris
Shape & HBR
Box + 2 Pan, 29 m
Radar Cross Section
36.964 m², Large (>1 m²)

Expand to show TLE details & history

TLE from 6 hours ago
0 STARLINK-32473
1 62049U 24216T   25182.50002315  .00030083  00000-0  10714-2 0  9999
2 62049  42.9999 235.0193 0001570 272.9151 251.9864 15.28392432 34290
Epoch: 2025-07-01T12:00Z
TLE epoch observation values (Epoch: 2025-07-01T12:00:02Z)
Latitude
10.24874°
Longitude
-55.90104°
Altitude
479.975 km
Speed
7.628 km/s
True Right ascension
02h 55m 36s
True Declination
10° 11' 11"
Sunlit
Object was in daylight at epoch
Visualization orbit readout
Latitude
7.04197°
Longitude
141.46621°
Altitude
479.821 km
Speed
7.628 km/s
Apparent Right ascension
16h 34m 34s
Apparent Declination
-15° 37' 19"
Sunlit
Object is in full shadow
Visualization observer readout
Local Sidereal Time
05:15:41
Azimuth
23.165° NE
Elevation
-64.105°
Doppler factor
1
Orbital elements
Apogee altitude
483.64 km
Perigee altitude
481.486 km
Semi-major axis
6,860.7 km
Eccentricity
0.00016
Inclination
42.9999°
RAAN
235.0193°
Arg. of periapsis
272.9151°
True anomaly
Unknown
Mean anomaly
251.9864°
Eccentric anomaly
Unknown
Mean motion
3.81936 °/min
Orbital period
94.26 mins
BSTAR
0.0010714
Loading maneuver chart data...
Loading SW <> Apogee altitude chart data...
Loading historical data...
Loading historical data...
Loading historical data...
Loading historical data...
Loading historical data...
Loading historical data...
Loading historical data...

STARLINK-32473 Visibility forecast

Observer location: undefined°, undefined°

Span
Click to sort rows by Start time (UTC) header in descending order
Start Az.
Max El. time (UTC)
Max El. Az.
Max El.
End time (UTC)
End Az.
5 mins2025-07-02 06:18:03.473Z192.35° SSW2025-07-02 06:20:03.473Z150.925° SSE22.478°2025-07-02 06:23:03.473Z92.947° ESE
5 mins2025-07-02 07:57:03.473Z254.786° W2025-07-02 07:59:03.473Z50.095° ENE44.385°2025-07-02 08:02:03.473Z71.314° E
5 mins2025-07-02 09:36:03.473Z294.392° NW2025-07-02 09:38:03.473Z7.867° NNE37.842°2025-07-02 09:41:03.473Z75.296° E
5 mins2025-07-02 11:15:03.473Z289.6° WNW2025-07-02 11:17:03.473Z38.015° NE44.932°2025-07-02 11:20:03.473Z107.032° ESE
4 mins2025-07-02 12:54:03.473Z250.463° W2025-07-02 12:56:03.473Z202.785° SW21.86°2025-07-02 12:58:03.473Z165.099° S
|